﻿_id,datum,zaehlstelle,uhrzeit_start,uhrzeit_ende,richtung_1,richtung_2,gesamt,min.temp,max.temp,niederschlag,bewoelkung,sonnenstunden,kommentar
1,2009-01-01,Arnulf,00:00,23:59,34,3,37,-7.6,0.3,0.2,94,0,NA
2,2009-01-02,Arnulf,00:00,23:59,124,3,127,-8.1,-2.4,0,94,0,NA
3,2009-01-03,Arnulf,00:00,23:59,93,2,95,-11.5,-3,0,16,5.8,NA
4,2009-01-04,Arnulf,00:00,23:59,56,1,57,-7.1,-2.2,0,91,5.3,NA
5,2009-01-05,Arnulf,00:00,23:59,171,5,176,-5.5,-2.5,0,95,0.1,NA
6,2009-01-06,Arnulf,00:00,23:59,47,2,49,-4.8,-3.3,0,100,0,NA
7,2009-01-07,Arnulf,00:00,23:59,264,8,272,-6.7,-4.5,0.3,100,0,NA
8,2009-01-08,Arnulf,00:00,23:59,250,10,260,-11.3,-2.7,0,23,7.2,NA
9,2009-01-09,Arnulf,00:00,23:59,220,4,224,-15.9,-4,0,4,7.4,NA
10,2009-01-10,Arnulf,00:00,23:59,124,4,128,-14.5,-4.1,0,0,7.5,NA
11,2009-01-11,Arnulf,00:00,23:59,64,5,69,-15.6,-4.2,0,16,7,NA
12,2009-01-12,Arnulf,00:00,23:59,273,11,284,-16.4,-3.1,0,6,6.9,NA
13,2009-01-13,Arnulf,00:00,23:59,357,17,374,-12.6,0.1,0,5,7.8,NA
14,2009-01-14,Arnulf,00:00,23:59,326,18,344,-10.9,-1.2,0,89,0,NA
15,2009-01-15,Arnulf,00:00,23:59,419,18,437,-7.8,2,0,66,2.6,NA
16,2009-01-16,Arnulf,00:00,23:59,320,12,332,-9,-2.3,0,91,0,NA
17,2009-01-17,Arnulf,00:00,23:59,224,6,230,-8.4,4.7,0,58,7.8,NA
18,2009-01-18,Arnulf,00:00,23:59,143,6,149,-5.4,5,1.1,76,0.2,NA
19,2009-01-19,Arnulf,00:00,23:59,409,21,430,-1.8,4.9,2.4,70,1.2,NA
20,2009-01-20,Arnulf,00:00,23:59,238,11,249,0.4,3.8,12.7,98,0,NA
21,2009-01-21,Arnulf,00:00,23:59,220,14,234,0.3,1.4,3.6,100,0,NA
22,2009-01-22,Arnulf,00:00,23:59,313,21,334,-3.9,0.9,0,94,0,NA
23,2009-01-23,Arnulf,00:00,23:59,298,30,328,-1.8,6.7,2.8,94,0,NA
24,2009-01-24,Arnulf,00:00,23:59,227,11,238,-1.6,4.1,0,56,7.7,NA
25,2009-01-25,Arnulf,00:00,23:59,161,10,171,-3,3.9,0,60,5.4,NA
26,2009-01-26,Arnulf,00:00,23:59,441,27,468,-6.3,2.9,0,24,8,NA
27,2009-01-27,Arnulf,00:00,23:59,417,25,442,-5.5,-1,0.1,90,0,NA
28,2009-01-28,Arnulf,00:00,23:59,203,10,213,-1.8,0,1.4,99,0,NA
29,2009-01-29,Arnulf,00:00,23:59,301,25,326,-3.5,0.2,0,88,0,NA
30,2009-01-30,Arnulf,00:00,23:59,293,14,307,-4,-1.7,0,95,0,NA
31,2009-01-31,Arnulf,00:00,23:59,154,12,166,-3.7,-0.1,0,86,1.2,NA
32,2009-02-01,Arnulf,00:00,23:59,100,8,108,-3.5,-1.2,0,85,0.4,NA
33,2009-02-02,Arnulf,00:00,23:59,429,25,454,-4.1,3.6,0,80,0,NA
34,2009-02-03,Arnulf,00:00,23:59,922,37,959,-3,5.9,0,59,4.7,NA
35,2009-02-04,Arnulf,00:00,23:59,568,41,609,-4.9,-0.5,0,76,0,NA
36,2009-02-05,Arnulf,00:00,23:59,526,44,570,-2.9,3.3,0,88,4.1,NA
37,2009-02-06,Arnulf,00:00,23:59,523,26,549,-1.2,0.3,0,99,0,NA
38,2009-02-07,Arnulf,00:00,23:59,252,17,269,-1.4,3.7,0,95,0.5,NA
39,2009-02-08,Arnulf,00:00,23:59,63,9,72,-0.3,2.4,1.8,98,0,NA
40,2009-02-09,Arnulf,00:00,23:59,451,31,482,-3,4,2.9,78,4.2,NA
41,2009-02-10,Arnulf,00:00,23:59,367,28,395,0.6,11.2,0.6,91,0.4,NA
42,2009-02-11,Arnulf,00:00,23:59,247,23,270,-1.4,2.1,0,93,1.3,NA
43,2009-02-12,Arnulf,00:00,23:59,NA,NA,NA,-3.8,0.3,0.5,81,0.7,Radweg vereist / nach Schneefall nicht geräumt / keine Messung möglich
44,2009-02-13,Arnulf,00:00,23:59,NA,NA,NA,-4.5,-0.5,0.1,88,2.2,Radweg vereist / nach Schneefall nicht geräumt / keine Messung möglich
45,2009-02-14,Arnulf,00:00,23:59,NA,NA,NA,-10.3,0,0,86,0.2,Radweg vereist / nach Schneefall nicht geräumt / keine Messung möglich
46,2009-02-15,Arnulf,00:00,23:59,NA,NA,NA,-7.8,-2.4,0,90,4.2,Radweg vereist / nach Schneefall nicht geräumt / keine Messung möglich
47,2009-02-16,Arnulf,00:00,23:59,NA,NA,NA,-7.2,0.7,1,94,0,Radweg vereist / nach Schneefall nicht geräumt / keine Messung möglich
48,2009-02-17,Arnulf,00:00,23:59,NA,NA,NA,-8.5,1,5,81,0,Radweg vereist / nach Schneefall nicht geräumt / keine Messung möglich
49,2009-02-18,Arnulf,00:00,23:59,NA,NA,NA,-16.9,-0.6,0,19,8.5,Radweg vereist / nach Schneefall nicht geräumt / keine Messung möglich
50,2009-02-19,Arnulf,00:00,23:59,NA,NA,NA,-16.4,-3.3,0.1,61,4.1,Radweg vereist / nach Schneefall nicht geräumt / keine Messung möglich
51,2009-02-20,Arnulf,00:00,23:59,NA,NA,NA,-9,0.1,0.7,99,0,Radweg vereist / nach Schneefall nicht geräumt / keine Messung möglich
52,2009-02-21,Arnulf,00:00,23:59,NA,NA,NA,-0.1,2.2,2.7,98,0,Radweg vereist / nach Schneefall nicht geräumt / keine Messung möglich
53,2009-02-22,Arnulf,00:00,23:59,NA,NA,NA,0.3,2.3,1.8,100,0,Radweg vereist / nach Schneefall nicht geräumt / keine Messung möglich
54,2009-02-23,Arnulf,00:00,23:59,NA,NA,NA,0.6,2.7,4.7,100,0.1,Radweg vereist / nach Schneefall nicht geräumt / keine Messung möglich
55,2009-02-24,Arnulf,00:00,23:59,NA,NA,NA,-0.9,2.4,4,99,0.1,Radweg vereist / nach Schneefall nicht geräumt / keine Messung möglich
56,2009-02-25,Arnulf,00:00,23:59,NA,NA,NA,-2.2,5,0,85,6.1,Radweg vereist / nach Schneefall nicht geräumt / keine Messung möglich
57,2009-02-26,Arnulf,00:00,23:59,NA,NA,NA,-1.9,4.1,2,96,0,Radweg vereist / nach Schneefall nicht geräumt / keine Messung möglich
58,2009-02-27,Arnulf,00:00,23:59,NA,NA,NA,1.8,4.6,0.7,100,0,Radweg vereist / nach Schneefall nicht geräumt / keine Messung möglich
59,2009-02-28,Arnulf,00:00,23:59,NA,NA,NA,2.2,9.8,0,74,7.4,Radweg vereist / nach Schneefall nicht geräumt / keine Messung möglich
60,2009-03-01,Arnulf,00:00,23:59,NA,NA,NA,-0.8,6.1,0.1,94,3.5,Radweg vereist / nach Schneefall nicht geräumt / keine Messung möglich
61,2009-03-02,Arnulf,00:00,23:59,67,14,81,0.2,7.8,3.5,100,0,NA
62,2009-03-03,Arnulf,00:00,23:59,230,25,255,3.6,5.6,1.6,100,0,NA
63,2009-03-04,Arnulf,00:00,23:59,445,32,477,2.6,9,0,90,2.6,NA
64,2009-03-05,Arnulf,00:00,23:59,324,15,339,1.1,5.8,5.6,95,0,NA
65,2009-03-06,Arnulf,00:00,23:59,316,22,338,1,2.7,1.9,100,0,NA
66,2009-03-07,Arnulf,00:00,23:59,91,5,96,0.8,2.4,0.9,99,0,NA
67,2009-03-08,Arnulf,00:00,23:59,103,5,108,-1,8,5.8,76,1.9,NA
68,2009-03-09,Arnulf,00:00,23:59,250,23,273,0.5,5.6,0.4,84,3.3,NA
69,2009-03-10,Arnulf,00:00,23:59,315,23,338,1.8,7.9,3.7,94,1.2,NA
70,2009-03-11,Arnulf,00:00,23:59,260,17,277,1.1,6.7,0.7,85,2.8,NA
71,2009-03-12,Arnulf,00:00,23:59,267,19,286,1.1,5.8,7.7,93,0.3,NA
72,2009-03-13,Arnulf,00:00,23:59,221,24,245,1.8,9.1,0.1,93,0.9,NA
73,2009-03-14,Arnulf,00:00,23:59,299,10,309,-1.3,12.1,1.9,85,4.3,NA
74,2009-03-15,Arnulf,00:00,23:59,67,5,72,5.1,8.5,0.1,99,0,NA
75,2009-03-16,Arnulf,00:00,23:59,439,27,466,3.9,8.8,0,95,0.5,NA
76,2009-03-17,Arnulf,00:00,23:59,497,31,528,-1,9.8,0,66,1,NA
77,2009-03-18,Arnulf,00:00,23:59,510,24,534,-0.3,10,0,61,9.8,NA
78,2009-03-19,Arnulf,00:00,23:59,459,21,480,-1.8,8.5,0.3,83,2.2,NA
79,2009-03-20,Arnulf,00:00,23:59,416,29,445,-3.3,4.5,0,70,3.9,NA
80,2009-03-21,Arnulf,00:00,23:59,242,21,263,-3.7,5.3,0,30,7.8,NA
81,2009-03-22,Arnulf,00:00,23:59,188,11,199,-2.4,10,0,74,6.4,NA
82,2009-03-23,Arnulf,00:00,23:59,403,22,425,0.8,10.3,3.5,94,1.1,NA
83,2009-03-24,Arnulf,00:00,23:59,282,21,303,-0.2,4.9,1.3,88,2.5,NA
84,2009-03-25,Arnulf,00:00,23:59,302,22,324,-2.4,3.7,5.5,83,1,NA
85,2009-03-26,Arnulf,00:00,23:59,306,20,326,1.1,7.3,6.3,96,0,NA
86,2009-03-27,Arnulf,00:00,23:59,368,30,398,3.6,11.8,1.4,90,0.5,NA
87,2009-03-28,Arnulf,00:00,23:59,296,14,310,4.4,14.9,1.5,83,5.9,NA
88,2009-03-29,Arnulf,00:00,23:59,61,3,64,3.4,5.7,8.9,100,0,NA
89,2009-03-30,Arnulf,00:00,23:59,364,19,383,2.7,7.4,0.2,86,0.3,NA
90,2009-03-31,Arnulf,00:00,23:59,523,38,561,2,9.6,0,74,0.2,NA
91,2009-04-01,Arnulf,00:00,23:59,636,26,662,3.5,16,0,78,3.8,NA
92,2009-04-02,Arnulf,00:00,23:59,801,51,852,8.8,20,0,40,11,NA
93,2009-04-03,Arnulf,00:00,23:59,813,38,851,3.8,19.8,0,16,11.6,NA
94,2009-04-04,Arnulf,00:00,23:59,433,13,446,5.9,18.9,0,51,6.3,NA
95,2009-04-05,Arnulf,00:00,23:59,385,27,412,6.1,19.6,0,31,8.8,NA
96,2009-04-06,Arnulf,00:00,23:59,817,36,853,3.1,19.7,0,43,8.7,NA
97,2009-04-07,Arnulf,00:00,23:59,936,34,970,4.2,21.5,0,23,10.1,NA
98,2009-04-08,Arnulf,00:00,23:59,846,39,885,7.2,18.4,0,66,7.9,NA
99,2009-04-09,Arnulf,00:00,23:59,860,52,912,5.3,19.5,0,44,11.7,NA
100,2009-04-10,Arnulf,00:00,23:59,571,23,594,4.1,21.9,0,9,12,NA
101,2009-04-11,Arnulf,00:00,23:59,647,15,662,4.4,22.2,0,4,12.6,NA
102,2009-04-12,Arnulf,00:00,23:59,409,23,432,2.7,21.8,0,14,12.6,NA
103,2009-04-13,Arnulf,00:00,23:59,461,13,474,3.1,21.1,0,8,11.9,NA
104,2009-04-14,Arnulf,00:00,23:59,919,38,957,5.9,21.3,0,25,11.4,NA
105,2009-04-15,Arnulf,00:00,23:59,1068,46,1114,2.1,22,0,15,12.5,NA
106,2009-04-16,Arnulf,00:00,23:59,871,45,916,4.3,22.8,4.9,70,9.3,NA
107,2009-04-17,Arnulf,00:00,23:59,412,31,443,7.7,11.2,2.5,95,0,NA
108,2009-04-18,Arnulf,00:00,23:59,397,22,419,7.2,14.1,0.7,75,5,NA
109,2009-04-19,Arnulf,00:00,23:59,644,27,671,3.9,19.2,0,20,13.2,NA
110,2009-04-20,Arnulf,00:00,23:59,738,58,796,7.8,20.6,0,44,11.8,NA
111,2009-04-21,Arnulf,00:00,23:59,1003,65,1068,8.5,20.2,0,29,11.3,NA
112,2009-04-22,Arnulf,00:00,23:59,1038,62,1100,3.3,19.6,0,39,9.9,NA
113,2009-04-23,Arnulf,00:00,23:59,784,38,822,1.3,11.2,5.9,70,4.6,NA
114,2009-04-24,Arnulf,00:00,23:59,943,31,974,0,15.6,0,48,5.5,NA
115,2009-04-25,Arnulf,00:00,23:59,957,37,994,0.8,20.5,0,41,12.5,NA
116,2009-04-26,Arnulf,00:00,23:59,717,33,750,3.6,21.2,0,76,4,NA
117,2009-04-27,Arnulf,00:00,23:59,1102,53,1155,6.3,21.5,0,75,5.9,NA
118,2009-04-28,Arnulf,00:00,23:59,856,47,903,7,17.3,3.2,94,5.8,NA
119,2009-04-29,Arnulf,00:00,23:59,397,27,424,6.5,9.9,4.4,100,0.3,NA
120,2009-04-30,Arnulf,00:00,23:59,440,23,463,7.2,11.7,2,94,0.9,NA
121,2009-05-01,Arnulf,00:00,23:59,788,28,816,5.8,18.4,1.8,66,10.6,NA
122,2009-05-02,Arnulf,00:00,23:59,689,35,724,9.1,19.4,0,50,8.5,NA
123,2009-05-03,Arnulf,00:00,23:59,742,37,779,6.3,20.3,7.8,38,12,NA
124,2009-05-04,Arnulf,00:00,23:59,586,28,614,4.4,12.9,0.7,76,2.5,NA
125,2009-05-05,Arnulf,00:00,23:59,988,47,1035,0.5,13.3,3.5,76,4.3,NA
126,2009-05-06,Arnulf,00:00,23:59,581,35,616,8.4,16,0.2,96,0,NA
127,2009-05-07,Arnulf,00:00,23:59,1244,54,1298,8.3,21.7,0,23,13.8,NA
128,2009-05-08,Arnulf,00:00,23:59,1055,40,1095,5.6,24.9,7.9,74,7.3,NA
129,2009-05-09,Arnulf,00:00,23:59,976,38,1014,10.6,23,0.4,66,11.4,NA
130,2009-05-10,Arnulf,00:00,23:59,668,27,695,10.4,23,0.2,81,11.7,NA
131,2009-05-11,Arnulf,00:00,23:59,1192,60,1252,12.1,23,8.5,79,7.1,NA
132,2009-05-12,Arnulf,00:00,23:59,827,31,858,11.1,14.8,2.4,94,0.3,NA
133,2009-05-13,Arnulf,00:00,23:59,949,44,993,10.2,16.6,6.8,96,1.2,NA
134,2009-05-14,Arnulf,00:00,23:59,661,23,684,9.8,15.3,2.4,100,0,NA
135,2009-05-15,Arnulf,00:00,23:59,858,36,894,9.6,16.1,3.6,98,0.5,NA
136,2009-05-16,Arnulf,00:00,23:59,549,27,576,9.2,16.8,3.1,73,4.4,NA
137,2009-05-17,Arnulf,00:00,23:59,968,38,1006,6.4,24.8,0.1,43,13.4,NA
138,2009-05-18,Arnulf,00:00,23:59,796,33,829,12.6,18.7,2,94,1.4,NA
139,2009-05-19,Arnulf,00:00,23:59,1269,50,1319,9.6,21.3,0,40,11.7,NA
140,2009-05-20,Arnulf,00:00,23:59,1532,61,1593,9,24.9,0,44,14.4,NA
141,2009-05-21,Arnulf,00:00,23:59,906,33,939,10.3,25.4,17.2,81,7.8,NA
142,2009-05-22,Arnulf,00:00,23:59,593,20,613,14.3,22,1.4,76,5.9,NA
143,2009-05-23,Arnulf,00:00,23:59,1124,40,1164,8.1,21.6,0,25,14.6,NA
144,2009-05-24,Arnulf,00:00,23:59,688,23,711,14,27.3,0,65,6.7,NA
145,2009-05-25,Arnulf,00:00,23:59,1583,82,1665,14,28.5,0,14,13,NA
146,2009-05-26,Arnulf,00:00,23:59,1177,63,1240,12.8,27.1,30.9,51,11.5,NA
147,2009-05-27,Arnulf,00:00,23:59,823,42,865,9.5,16,0,70,5.9,NA
148,2009-05-28,Arnulf,00:00,23:59,1079,51,1130,9.1,16.8,2.1,91,0.7,NA
149,2009-05-29,Arnulf,00:00,23:59,1029,65,1094,8.3,15.5,0,60,9.2,NA
150,2009-05-30,Arnulf,00:00,23:59,659,22,681,6.5,15.6,3,71,3.4,NA
151,2009-05-31,Arnulf,00:00,23:59,588,30,618,7.4,17.2,0,71,10,NA
152,2009-06-01,Arnulf,00:00,23:59,616,30,646,8.7,19.9,0,51,7.1,NA
153,2009-06-02,Arnulf,00:00,23:59,1111,55,1166,9.4,20.7,2.1,60,6,NA
154,2009-06-03,Arnulf,00:00,23:59,1184,58,1242,11,19.9,0,45,14.3,NA
155,2009-06-04,Arnulf,00:00,23:59,1069,44,1113,7.1,16.8,0,80,8.4,NA
156,2009-06-05,Arnulf,00:00,23:59,1149,58,1207,7.6,19.3,0.2,71,11.2,NA
157,2009-06-06,Arnulf,00:00,23:59,346,13,359,10.1,16.5,10.5,91,1.2,NA
158,2009-06-07,Arnulf,00:00,23:59,499,16,515,10.7,22.4,12,75,8.4,NA
159,2009-06-08,Arnulf,00:00,23:59,922,38,960,12.1,20.7,0,81,6.2,NA
160,2009-06-09,Arnulf,00:00,23:59,959,60,1019,12.9,19.7,0.2,91,1.5,NA
161,2009-06-10,Arnulf,00:00,23:59,1074,40,1114,13,21.4,2.2,78,6.5,NA
162,2009-06-11,Arnulf,00:00,23:59,525,24,549,11.9,20.9,0.6,63,9.2,NA
163,2009-06-12,Arnulf,00:00,23:59,970,55,1025,10.7,20.4,0,45,9.8,NA
164,2009-06-13,Arnulf,00:00,23:59,985,31,1016,8.2,22.4,0,24,14.5,NA
165,2009-06-14,Arnulf,00:00,23:59,822,34,856,10.1,27.6,1.5,60,12,NA
166,2009-06-15,Arnulf,00:00,23:59,967,54,1021,17,21.8,9.1,94,0.4,NA
167,2009-06-16,Arnulf,00:00,23:59,818,37,855,11.3,21.6,1.3,65,7.3,NA
168,2009-06-17,Arnulf,00:00,23:59,1527,71,1598,8.2,22.5,0,30,14.7,NA
169,2009-06-18,Arnulf,00:00,23:59,1596,74,1670,10.2,28.3,7,48,11.7,NA
170,2009-06-19,Arnulf,00:00,23:59,459,24,483,12.6,19.5,13.4,94,0,NA
171,2009-06-20,Arnulf,00:00,23:59,510,16,526,10.7,17.1,4.3,81,1.9,NA
172,2009-06-21,Arnulf,00:00,23:59,414,22,436,7.8,17.4,6.7,60,8.8,NA
173,2009-06-22,Arnulf,00:00,23:59,531,28,559,9.1,15.8,23.8,98,1,NA
174,2009-06-23,Arnulf,00:00,23:59,254,15,269,10.9,12.5,37,100,0,NA
175,2009-06-24,Arnulf,00:00,23:59,394,21,415,11.8,14.4,5.1,100,0,NA
176,2009-06-25,Arnulf,00:00,23:59,617,35,652,13.9,19.9,3.3,91,0.4,NA
177,2009-06-26,Arnulf,00:00,23:59,889,54,943,12.1,23.5,6.9,78,8.8,NA
178,2009-06-27,Arnulf,00:00,23:59,545,20,565,15.5,22.3,6.9,85,4.9,NA
179,2009-06-28,Arnulf,00:00,23:59,495,18,513,16.7,23.1,2.7,89,2.5,NA
180,2009-06-29,Arnulf,00:00,23:59,1181,64,1245,15.7,25,0,70,8.5,NA
181,2009-06-30,Arnulf,00:00,23:59,1316,52,1368,16,26.6,9.7,56,9.4,NA
182,2009-07-01,Arnulf,00:00,23:59,1373,57,1430,15,26.7,0,45,10.2,NA
183,2009-07-02,Arnulf,00:00,23:59,1300,93,1393,15.4,27.1,0.6,53,9.1,NA
184,2009-07-03,Arnulf,00:00,23:59,982,48,1030,16.2,24.6,0.4,76,2.8,NA
185,2009-07-04,Arnulf,00:00,23:59,833,44,877,16.8,23.5,12,68,4.1,NA
186,2009-07-05,Arnulf,00:00,23:59,538,21,559,15.7,25,2.1,55,6.5,NA
187,2009-07-06,Arnulf,00:00,23:59,623,38,661,14.9,23.6,10.9,79,3.3,NA
188,2009-07-07,Arnulf,00:00,23:59,719,56,775,13.3,19.3,6.9,86,0.6,NA
189,2009-07-08,Arnulf,00:00,23:59,976,69,1045,11.9,19.7,1.4,69,7.8,NA
190,2009-07-09,Arnulf,00:00,23:59,827,49,876,11.9,20.7,2.9,76,3.9,NA
191,2009-07-10,Arnulf,00:00,23:59,943,39,982,10.6,19.3,0,66,6.7,NA
192,2009-07-11,Arnulf,00:00,23:59,780,37,817,10.2,20,0,50,10.5,NA
193,2009-07-12,Arnulf,00:00,23:59,628,25,653,8.3,21.8,0.6,78,4.9,NA
194,2009-07-13,Arnulf,00:00,23:59,1063,42,1105,16.6,27.1,0,79,5.8,NA
195,2009-07-14,Arnulf,00:00,23:59,1504,68,1572,15.7,27.6,2.1,38,8.4,NA
196,2009-07-15,Arnulf,00:00,23:59,1047,76,1123,17,24.1,0.1,66,4.5,NA
197,2009-07-16,Arnulf,00:00,23:59,1418,71,1489,15.6,28.1,0.1,26,11.8,NA
198,2009-07-17,Arnulf,00:00,23:59,978,58,1036,13.5,25.9,16.5,64,8.8,NA
199,2009-07-18,Arnulf,00:00,23:59,115,6,121,10.5,14,21.8,98,0,NA
200,2009-07-19,Arnulf,00:00,23:59,518,20,538,11,20.9,0,56,6.2,NA
201,2009-07-20,Arnulf,00:00,23:59,1145,56,1201,11.7,21.9,0,59,6.9,NA
202,2009-07-21,Arnulf,00:00,23:59,1463,66,1529,10.6,30.1,0,30,14,NA
203,2009-07-22,Arnulf,00:00,23:59,1398,78,1476,14.8,28.7,0,66,9.1,NA
204,2009-07-23,Arnulf,00:00,23:59,1008,74,1082,16.9,34.7,6.5,61,8.3,NA
205,2009-07-24,Arnulf,00:00,23:59,948,53,1001,15.6,25.4,16.6,61,8.4,NA
206,2009-07-25,Arnulf,00:00,23:59,533,20,553,12.9,20.5,0.3,55,8.3,NA
207,2009-07-26,Arnulf,00:00,23:59,651,42,693,10.7,22.6,0,29,13.1,NA
208,2009-07-27,Arnulf,00:00,23:59,1264,57,1321,9.7,28.4,5.4,20,13.4,NA
209,2009-07-28,Arnulf,00:00,23:59,920,52,972,12.7,22.4,0.2,56,7.9,NA
210,2009-07-29,Arnulf,00:00,23:59,1382,66,1448,10.4,26,0,30,14.5,NA
211,2009-07-30,Arnulf,00:00,23:59,1157,46,1203,12.8,24,0,66,4.4,NA
212,2009-07-31,Arnulf,00:00,23:59,1161,55,1216,14.5,22.1,0,89,3.2,NA
213,2009-08-01,Arnulf,00:00,23:59,940,24,964,12.6,27.9,0,20,13.6,NA
214,2009-08-02,Arnulf,00:00,23:59,429,33,462,14.8,26.9,3.9,55,7.3,NA
215,2009-08-03,Arnulf,00:00,23:59,829,37,866,13.6,18.1,2.7,91,0.1,NA
216,2009-08-04,Arnulf,00:00,23:59,873,46,919,14.1,20.3,0,95,0.3,NA
217,2009-08-05,Arnulf,00:00,23:59,1388,57,1445,11.3,24.1,0,19,12.1,NA
218,2009-08-06,Arnulf,00:00,23:59,1498,64,1562,12.4,26.2,0,18,13.1,NA
219,2009-08-07,Arnulf,00:00,23:59,1382,57,1439,14,26.4,0,28,13.5,NA
220,2009-08-08,Arnulf,00:00,23:59,908,35,943,12.5,26,0,69,9.6,NA
221,2009-08-09,Arnulf,00:00,23:59,696,40,736,15.9,25.4,0,81,4.8,NA
222,2009-08-10,Arnulf,00:00,23:59,827,29,856,12.9,21.3,10.6,86,2.2,NA
223,2009-08-11,Arnulf,00:00,23:59,928,45,973,15.7,24.3,0.7,61,5.6,NA
224,2009-08-12,Arnulf,00:00,23:59,1291,42,1333,16,25,1.5,71,8.9,NA
225,2009-08-13,Arnulf,00:00,23:59,815,39,854,15.1,22.8,8.7,91,0.7,NA
226,2009-08-14,Arnulf,00:00,23:59,1151,38,1189,13.8,23.5,0,68,6.3,NA
227,2009-08-15,Arnulf,00:00,23:59,1010,45,1055,11.8,27.6,0,19,13.4,NA
228,2009-08-16,Arnulf,00:00,23:59,826,25,851,15.4,29.9,0,41,11.8,NA
229,2009-08-17,Arnulf,00:00,23:59,1314,109,1423,15,31.1,1,66,10.2,NA
230,2009-08-18,Arnulf,00:00,23:59,1429,94,1523,16,26.4,0,35,10.8,NA
231,2009-08-19,Arnulf,00:00,23:59,1538,121,1659,13.9,28.8,0,25,12.6,NA
232,2009-08-20,Arnulf,00:00,23:59,1469,109,1578,15.6,30.7,0,3,13,NA
233,2009-08-21,Arnulf,00:00,23:59,1178,82,1260,14,26,2.9,64,6.1,NA
234,2009-08-22,Arnulf,00:00,23:59,363,38,401,10.6,17.9,7.5,75,1.5,NA
235,2009-08-23,Arnulf,00:00,23:59,912,60,972,8.1,21.2,0,43,9.9,NA
236,2009-08-24,Arnulf,00:00,23:59,1447,117,1564,11,26.7,0,0,13.1,NA
237,2009-08-25,Arnulf,00:00,23:59,1233,101,1334,12.9,27.9,7.5,46,11.2,NA
238,2009-08-26,Arnulf,00:00,23:59,974,82,1056,16.7,22.9,0,81,1.4,NA
239,2009-08-27,Arnulf,00:00,23:59,1191,98,1289,16.3,28.2,0,25,11.5,NA
240,2009-08-28,Arnulf,00:00,23:59,1043,109,1152,15.4,28.7,0,50,7.9,NA
241,2009-08-29,Arnulf,00:00,23:59,681,45,726,9.5,20.4,0.1,63,5,NA
242,2009-08-30,Arnulf,00:00,23:59,798,59,857,6.1,21.5,0,28,12.8,NA
243,2009-08-31,Arnulf,00:00,23:59,1252,102,1354,6.5,24.1,0,34,13,NA
244,2009-09-01,Arnulf,00:00,23:59,1353,127,1480,9.2,29.6,4,13,12.6,NA
245,2009-09-02,Arnulf,00:00,23:59,930,78,1008,16.3,25.1,9.2,75,5.7,NA
246,2009-09-03,Arnulf,00:00,23:59,614,63,677,15,23.6,3.9,89,2.6,NA
247,2009-09-04,Arnulf,00:00,23:59,662,72,734,12.6,18.1,1.4,90,0.5,NA
248,2009-09-05,Arnulf,00:00,23:59,816,55,871,9.4,17,0,54,8.1,NA
249,2009-09-06,Arnulf,00:00,23:59,492,61,553,7.4,18.6,0,36,9.3,NA
250,2009-09-07,Arnulf,00:00,23:59,1142,115,1257,5.3,21.8,0,54,10.7,NA
251,2009-09-08,Arnulf,00:00,23:59,1112,110,1222,5.6,22.3,0,0,11.8,NA
252,2009-09-09,Arnulf,00:00,23:59,1144,80,1224,7,22.2,0,19,11.7,NA
253,2009-09-10,Arnulf,00:00,23:59,1141,113,1254,8.6,23.5,0,33,10.3,NA
254,2009-09-11,Arnulf,00:00,23:59,939,87,1026,12.6,18.8,0,71,4,NA
255,2009-09-12,Arnulf,00:00,23:59,648,47,695,11.9,17.8,0,86,0,NA
256,2009-09-13,Arnulf,00:00,23:59,575,81,656,11.4,19.5,0.2,69,6.6,NA
257,2009-09-14,Arnulf,00:00,23:59,567,64,631,9.9,12,3.1,96,0,NA
258,2009-09-15,Arnulf,00:00,23:59,1011,77,1088,10.7,18.9,0,88,5.4,NA
259,2009-09-16,Arnulf,00:00,23:59,1070,84,1154,11.4,22,0.9,90,6.6,NA
260,2009-09-17,Arnulf,00:00,23:59,431,55,486,14.8,18.7,7.2,100,0,NA
261,2009-09-18,Arnulf,00:00,23:59,849,92,941,15.9,21,0,88,2.1,NA
262,2009-09-19,Arnulf,00:00,23:59,697,66,763,12.1,20.8,0,79,1.8,NA
263,2009-09-20,Arnulf,00:00,23:59,578,56,634,10.9,22.6,0,35,7.2,NA
264,2009-09-21,Arnulf,00:00,23:59,1154,91,1245,9.5,23.9,0,21,7.2,NA
265,2009-09-22,Arnulf,00:00,23:59,1218,101,1319,9.8,23.7,0,18,8.8,NA
266,2009-09-23,Arnulf,00:00,23:59,1209,111,1320,10.7,24.3,0,23,10.3,NA
267,2009-09-24,Arnulf,00:00,23:59,1062,104,1166,9.2,23.3,0,69,7.4,NA
268,2009-09-25,Arnulf,00:00,23:59,1086,91,1177,10.5,19.8,0,71,6.9,NA
269,2009-09-26,Arnulf,00:00,23:59,786,63,849,8.3,18.5,0,59,9.4,NA
270,2009-09-27,Arnulf,00:00,23:59,606,55,661,4.7,20.1,0,29,9.6,NA
271,2009-09-28,Arnulf,00:00,23:59,1107,115,1222,7.4,22.1,0,41,8.9,NA
272,2009-09-29,Arnulf,00:00,23:59,1101,77,1178,9.9,19.3,0,68,5.1,NA
273,2009-09-30,Arnulf,00:00,23:59,1159,97,1256,8.5,17.4,0,65,0.6,NA
274,2009-10-01,Arnulf,00:00,23:59,1056,98,1154,7.6,19.8,0,59,6.9,NA
275,2009-10-02,Arnulf,00:00,23:59,937,87,1024,9.2,15.2,0,84,1.9,NA
276,2009-10-03,Arnulf,00:00,23:59,555,63,618,4.3,18.5,0,66,10.6,NA
277,2009-10-04,Arnulf,00:00,23:59,520,50,570,6,18.7,0,38,10.7,NA
278,2009-10-05,Arnulf,00:00,23:59,930,84,1014,7.1,17.4,2.4,79,4.5,NA
279,2009-10-06,Arnulf,00:00,23:59,934,71,1005,11.7,24.3,0.2,80,4.6,NA
280,2009-10-07,Arnulf,00:00,23:59,1110,106,1216,14.9,26.9,0,55,10,NA
281,2009-10-08,Arnulf,00:00,23:59,800,82,882,13.3,21.7,1.8,91,0.9,NA
282,2009-10-09,Arnulf,00:00,23:59,656,67,723,10.6,15.6,3.7,100,0,NA
283,2009-10-10,Arnulf,00:00,23:59,378,50,428,10.4,17.6,6.8,98,0.3,NA
284,2009-10-11,Arnulf,00:00,23:59,354,44,398,10.1,14.3,10.5,81,3.2,NA
285,2009-10-12,Arnulf,00:00,23:59,455,71,526,4.5,11.6,4.4,86,1.4,NA
286,2009-10-13,Arnulf,00:00,23:59,542,63,605,1.7,8.6,3.5,75,2.9,NA
287,2009-10-14,Arnulf,00:00,23:59,444,62,506,0.1,4.9,0.6,78,1.9,NA
288,2009-10-15,Arnulf,00:00,23:59,529,61,590,-0.1,3.6,1,91,0.5,NA
289,2009-10-16,Arnulf,00:00,23:59,422,51,473,1,5.9,6.7,98,0.6,NA
290,2009-10-17,Arnulf,00:00,23:59,162,17,179,3.3,5.8,2.8,94,0.2,NA
291,2009-10-18,Arnulf,00:00,23:59,144,18,162,2.7,6,2.5,94,0.6,NA
292,2009-10-19,Arnulf,00:00,23:59,638,72,710,-0.2,6.7,0,60,3.3,NA
293,2009-10-20,Arnulf,00:00,23:59,677,72,749,-1.8,7.8,0,14,9.6,NA
294,2009-10-21,Arnulf,00:00,23:59,775,91,866,-1.1,8.6,0,74,4.8,NA
295,2009-10-22,Arnulf,00:00,23:59,398,59,457,2.9,6.6,4.7,89,0,NA
296,2009-10-23,Arnulf,00:00,23:59,521,78,599,3.4,8.3,0.6,100,0,NA
297,2009-10-24,Arnulf,00:00,23:59,413,46,459,5,11.2,0,94,2.1,NA
298,2009-10-25,Arnulf,00:00,23:59,305,57,362,5.2,17,4.7,94,1.5,NA
299,2009-10-26,Arnulf,00:00,23:59,593,60,653,9.5,13.6,0.4,91,0.4,NA
300,2009-10-27,Arnulf,00:00,23:59,759,86,845,3.8,13.9,0,79,2.4,NA
301,2009-10-28,Arnulf,00:00,23:59,776,78,854,1.1,12.5,0,80,4.1,NA
302,2009-10-29,Arnulf,00:00,23:59,778,60,838,1.3,12.1,0,78,6.3,NA
303,2009-10-30,Arnulf,00:00,23:59,712,92,804,0.8,10.9,0,50,5.3,NA
304,2009-10-31,Arnulf,00:00,23:59,378,30,408,-0.3,5.9,0,86,0,NA
305,2009-11-01,Arnulf,00:00,23:59,359,38,397,2.6,7.7,0.6,98,0.4,NA
306,2009-11-02,Arnulf,00:00,23:59,322,48,370,2.3,9.9,17.2,100,0,NA
307,2009-11-03,Arnulf,00:00,23:59,530,73,603,3.5,8.4,5.7,78,2.2,NA
308,2009-11-04,Arnulf,00:00,23:59,480,73,553,3,12.2,0.5,59,4.4,NA
309,2009-11-05,Arnulf,00:00,23:59,707,75,782,-0.4,11.5,0,34,5.9,NA
310,2009-11-06,Arnulf,00:00,23:59,634,73,707,-2.4,3.5,0,69,2,NA
311,2009-11-07,Arnulf,00:00,23:59,406,43,449,1.3,6.3,0,94,1.3,NA
312,2009-11-08,Arnulf,00:00,23:59,190,25,215,1.9,4.7,5.4,100,0,NA
313,2009-11-09,Arnulf,00:00,23:59,507,68,575,1.6,5.5,0.4,93,0,NA
314,2009-11-10,Arnulf,00:00,23:59,572,68,640,1.3,5,0,93,0,NA
315,2009-11-11,Arnulf,00:00,23:59,603,81,684,-1.6,6,0,84,0,NA
316,2009-11-12,Arnulf,00:00,23:59,590,78,668,-3.5,7.1,0.5,70,3.7,NA
317,2009-11-13,Arnulf,00:00,23:59,550,63,613,3.1,16.6,0,76,3.4,NA
318,2009-11-14,Arnulf,00:00,23:59,422,37,459,0.1,10.2,1.5,66,2.6,NA
319,2009-11-15,Arnulf,00:00,23:59,231,34,265,3.7,11.8,2.7,85,2.3,NA
320,2009-11-16,Arnulf,00:00,23:59,408,64,472,7.2,12.4,4.5,100,0,NA
321,2009-11-17,Arnulf,00:00,23:59,630,59,689,5.8,18,1.7,71,4,NA
322,2009-11-18,Arnulf,00:00,23:59,685,68,753,3.9,13.3,0,41,6.1,NA
323,2009-11-19,Arnulf,00:00,23:59,746,78,824,-0.9,14.6,0,9,8.1,NA
324,2009-11-20,Arnulf,00:00,23:59,744,91,835,0.4,9.9,0,39,2.4,NA
325,2009-11-21,Arnulf,00:00,23:59,537,51,588,0.3,12.3,0,50,4.2,NA
326,2009-11-22,Arnulf,00:00,23:59,332,42,374,-0.9,15.3,0,64,4.6,NA
327,2009-11-23,Arnulf,00:00,23:59,641,70,711,8.2,13.2,0,74,5.8,NA
328,2009-11-24,Arnulf,00:00,23:59,528,61,589,9.3,12.2,1.1,95,0.6,NA
329,2009-11-25,Arnulf,00:00,23:59,675,74,749,4.8,16.3,0,44,7.3,NA
330,2009-11-26,Arnulf,00:00,23:59,660,89,749,2.1,11.6,0,73,0.8,NA
331,2009-11-27,Arnulf,00:00,23:59,597,80,677,1.5,12,0.8,81,1,NA
332,2009-11-28,Arnulf,00:00,23:59,387,55,442,-0.1,11.2,0,58,6.2,NA
333,2009-11-29,Arnulf,00:00,23:59,340,41,381,-1.4,11.1,0,83,3.7,NA
334,2009-11-30,Arnulf,00:00,23:59,600,69,669,1.6,10.4,2.3,98,1.2,NA
335,2009-12-01,Arnulf,00:00,23:59,432,60,492,1.2,3.4,5.7,100,0,NA
336,2009-12-02,Arnulf,00:00,23:59,635,69,704,-0.1,4.5,0,84,2.8,NA
337,2009-12-03,Arnulf,00:00,23:59,620,71,691,-1.7,4.2,0,79,6.8,NA
338,2009-12-04,Arnulf,00:00,23:59,368,73,441,-1.1,3.2,4.8,95,0,NA
339,2009-12-05,Arnulf,00:00,23:59,344,45,389,-1.6,4.1,0.1,80,1,NA